OBJECT G, 56749

Orbit data source: Space-Track

You're viewing an Uncataloged Satellite

Recently launched and/or uncataloged satellites may have evolving metadata. Metadata may include but not limited to: Owner, Maufacturer, Bus, Motor, and Mission.

OBJECT G, 56749 is a South Korean satellite in SSO that was launched on Thu, 25 May 2023 UTC via an NURI launch vehicle from the Naro Space Center, South Korea (NSC). Unknown objects in Earth's orbit typically refer to objects detected orbiting the Earth but have not yet been identified or cataloged. These objects could be anything from previously untracked satellites, spent rocket stages, debris from satellite collisions, or even natural meteoroids temporarily captured by Earth's gravity.

Loading next visibility...
Identifier
56749, 2023-072G
Orbit
SSO
Country
Flag of UnknownUnknown / SKOR
Related business
None
Manufacturer
Unknown
Mission
Operational Commercial Technology
Bus & Motor
Unknown
Mass
Unknown
Launch date (UTC)
2023-05-25 (3 years ago)
Launch vehicle
NURI
Launch site
Naro Space Center, South Korea (NSC)
Object type
Unknown
Shape & HBR
Box, 0.1 m
Radar Cross Section
0.035 m², Medium (>0.1 m² and < 1m²)

Expand to show TLE details & history
Last TLE update: 15 hours ago

TLE from 15 hours ago
0 OBJECT G
1 56749U 23072G   26034.60422932  .00030296  00000-0  69085-3 0  9999
2 56749  97.5024 237.7819 0005373  99.4804 260.7051 15.42848170149813
Epoch: 2026-02-03T14:30Z
TLE epoch observation values (Epoch: 2026-02-03T14:30:05.413Z)
Latitude
0.00002°
Longitude
-113.52344°
Altitude
441.42 km
Speed
7.647 km/s
True Right ascension
15h 51m 07s
True Declination
0° 00' 00"
Sunlit
Object was in daylight at epoch
Visualization orbit readout
Latitude
Unknown
Longitude
Unknown
Altitude
Unknown
Speed
Unknown
Apparent Right ascension
Unknown
Apparent Declination
Unknown
Sunlit
N/A
Visualization observer readout
Local Sidereal Time
07:10:37
Azimuth
Unknown
Elevation
Unknown
Doppler factor
Unknown
Orbital elements
Apogee altitude
438.308 km
Perigee altitude
430.987 km
Semi-major axis
6,812.785 km
Eccentricity
0.00054
Inclination
97.5024°
RAAN
237.7819°
Arg. of periapsis
99.4804°
True anomaly
260.64434°
Mean anomaly
260.7051°
Eccentric anomaly
260.67472°
Mean motion
3.85972 °/min
Orbital period
93.27 mins
BSTAR
0.00069085
Loading maneuver chart data...
Computing Atmospheric mass density...
Loading historical data...
Loading historical data...
Loading historical data...
Loading historical data...
Loading historical data...
Loading historical data...
Loading historical data...

Documentation

Showing up to 5 results
|